Hourly Weather Roundup
Issued by NWS Central Illinois

Home | Current Version | Previous Version | Text Only | Print | Product List | Glossary On
Versions: 1 2 3 4 5 6 7 8 9 10 11 12 13 14 15 16 17 18 19 20 21 22 23 24 25 26 27 28 29 30 31 32 33 34 35 36 37 38 39 40 41 42 43 44 45 46 47 48 49 50
769
NZUS43 KILX 291010
HWRILX

AREA WEATHER ROUNDUP
NATIONAL WEATHER SERVICE, LINCOLN IL
500 AM CDT WED MAR 29 2017


CITY           SKY/WX    TMP DP  RH WIND       PRES   REMARKS
BLOOMINGTON    CLOUDY    43  42  97 E10       30.15S FOG
CHAMPAIGN      CLOUDY    46  42  86 NE12      30.12F
DECATUR        CLOUDY    45  41  86 NE12      30.12F
EFFINGHAM      CLEAR     43  43  99 NE3       30.10F
FLORA          CLOUDY    48  45  88 NE8       30.08F
GALESBURG      CLOUDY    41  41  99 E6        30.14S FOG
JACKSONVILLE   CLOUDY    42  40  92 E13       30.10S
LACON          CLOUDY    43  41  93 E8        30.16R
LAWRENCEVILLE  CLEAR     46  44  93 NE7       30.10F
LITCHFIELD     CLOUDY    44  41  90 NE10      30.08R
$$


CITY           SKY/WX    TMP DP  RH WIND       PRES   REMARKS
LINCOLN        CLOUDY    45  44  95 E8        30.12S
MACOMB         CLOUDY    41  40  96 E12       30.15S WCI  34
MATTOON        CLEAR     40  40 100 NE6       30.10F
MT CARMEL AP   CLEAR     44  42  92 NE5       30.09F
OLNEY-NOBLE AP CLOUDY    45  45 100 NE6       30.09F
PARIS          CLOUDY    47  45  93 NE7       30.13F
PEORIA         CLOUDY    44  42  93 E9        30.15R FOG
PONTIAC        CLOUDY    43  43  99 NE12      30.17F
RANTOUL        CLOUDY    46  45  94 E12       30.14F
SPRINGFIELD    CLOUDY    45  41  86 E8        30.12S
TAYLORVILLE    NOT AVBL
$$

...REGIONAL REPORTS...


CITY           SKY/WX    TMP DP  RH WIND       PRES   REMARKS
CHICAGO O`HARE FOG       35  33  92 NE6       30.22S VSB 1   WCI  30
KANKAKEE       CLOUDY    40  38  95 NE10      30.19S WCI  33
MOLINE         CLOUDY    43  39  86 E9        30.17R
MOUNT STERLING CLOUDY    42  40  91 NE13      30.07F
MOUNT VERNON   CLEAR     48  45  89 NE8       30.06
PITTSFIELD     CLOUDY    46  43  89 NE9       30.08F
QUINCY         CLOUDY    46  42  86 NE18      30.04F
ROCKFORD       FOG       37  35  92 E7        30.23R VSB 3/4 WCI  32
$$


CITY           SKY/WX    TMP DP  RH WIND       PRES   REMARKS
BURLINGTON     CLOUDY    42  40  92 E12       30.11S
CEDAR RAPIDS   CLOUDY    39  39 100 E15       30.16R WCI  31
DES MOINES     CLOUDY    45  40  82 NE12      30.10S
KIRKSVILLE     CLOUDY    47  44  90 NE13      30.02S
OTTUMWA        CLOUDY    42  41  96 E16       30.07F WCI  34
ST LOUIS       CLOUDY    51  43  74 E21       30.04F
$$


CITY           SKY/WX    TMP DP  RH WIND       PRES   REMARKS
TERRE HAUTE    CLOUDY    49  44  83 NE8       30.12F
EVANSVILLE     CLOUDY    51  47  86 NE12      30.08F
INDIANAPOLIS   CLOUDY    49  44  83 E8        30.14R
LAFAYETTE      CLOUDY    46  43  89 E12       30.17R
MADISON        FOG       31  30  96 CALM      30.24R VSB 1/4
MILWAUKEE      FOG       32  30  92 E3        30.25S VSB 1/4
$$






USA.gov is the U.S. government's official web portal to all federal, state and local government web resources and services.